Location: Newark
(45.5000°N, 11.4167°E)
Time: 17:54:12
(UTC+00:00)

Vanguard 3 - Pass Details

Date: 24 August 2019
Orbit: 508 x 3263 km, 33.4° (Epoch: 14 September)

Event Time Altitude Azimuth Distance (km) Brightness Sun altitude
Rises 18:27:41 0° 253° (WSW) 3,777 11.5 -4.2°
Reaches altitude 10° 18:31:34 10° 237° (WSW) 2,398 10.1 -4.9°
Maximum altitude 18:35:07 18° 194° (SSW) 1,599 8.6 -5.4°
Drops below altitude 10° 18:37:58 10° 150° (SSE) 1,862 8.5 -5.9°
Enters shadow 18:39:11 - 138° (SE) 2,200 8.8 -6.1°
Sets 18:40:29 0° 129° (SE) 2,635 - -6.3°
